Back to catalog

CZ-4 DEB

AlivePO
NORAD 20861·DEBRIS·🇨🇳 China

Launched Sep 3, 1990 from Taiyuan Satellite Launch Center

Loading…

Next Passes (next 24 hours)

TLE

FreshSource: Space-Track

Epoch: Sep 14, 2026, 22:46 UTC

1 20861U 90081Z   26257.94924101  .00772229  00000-0  61311-2 0  9990
2 20861  97.9772 338.5442 0010218 281.9797  78.0317 15.68925868888293

Track CZ-4 DEB in real time with AllMySat

Download on the App Store